Regional Weather Roundup
Issued by NWS

Home | Current Version | Previous Version | Graphics & Text | Print | Product List | Glossary On
Versions: 1 2 3 4 5 6 7 8 9 10 11 12 13 14 15 16 17 18 19 20 21 22 23 24 25 26 27 28 29 30 31 32 33 34 35 36 37 38 39 40 41 42 43 44 45 46 47 48 49 50
000
ASUS45 KPSR 311110
RWRAZ

ARIZONA REGIONAL HOURLY WEATHER ROUNDUP
NATIONAL WEATHER SERVICE PHOENIX AZ
400 AM MST SAT JAN 31 2015

NOTE: FAIR INDICATES FEW OR NO CLOUDS BELOW 12,000 FEET WITH NO
SIGNIFICANT WEATHER AND/OR OBSTRUCTIONS TO VISIBILITY.

AZZ001>003-036-311200-
NORTHWEST ARIZONA

CITY           SKY/WX    TMP DP  RH WIND       PRES   REMARKS
BULLHEAD CITY  CLOUDY    55  48  76 N8        29.85S
KINGMAN        CLOUDY    46  44  93 CALM      29.84F
$$

AZZ004>008-015-016-018-311200-
NORTH CENTRAL ARIZONA

CITY           SKY/WX    TMP DP  RH WIND       PRES   REMARKS
GRAND CANYON   CLOUDY    37  37 100 CALM      29.87F
PRESCOTT       LGT RAIN  42  39  89 CALM      29.84F
FLAGSTAFF      CLOUDY    36  34  92 NW3       29.86F
PAYSON         FOG       43  41  93 CALM      29.88S VSB 3/4
$$

AZZ009>014-017-311200-
NORTHEAST ARIZONA

CITY           SKY/WX    TMP DP  RH WIND       PRES   REMARKS
WINSLOW        CLOUDY    42  40  92 NW6       29.86S
SAINT JOHNS    CLOUDY    41  38  89 E5        29.86F
WINDOW ROCK    CLOUDY    34  31  88 CALM      29.88F
SHOW LOW       MOCLDY    36  32  87 S12       29.89F WCI  27
$$

AZZ023-311200-
GREATER PHOENIX AREA

CITY           SKY/WX    TMP DP  RH WIND       PRES   REMARKS
PHOENIX        CLOUDY    56  53  90 E5        29.79F
BUCKEYE          N/A     55  55 100 CALM      29.81S
LUKE AFB       CLOUDY    56  54  95 CALM      29.79F
DEER VALLEY    CLOUDY    54  54 100 CALM      29.80F
SCOTTSDALE     CLOUDY    55  52  89 CALM      29.82F
MESA-GATEWAY   CLOUDY    52  52 100 CALM      29.82F
$$

AZZ027-028-311200-
SOUTHWEST MARICOPA COUNTY AND PINAL COUNTY

CITY           SKY/WX    TMP DP  RH WIND       PRES   REMARKS
CASA GRANDE    CLOUDY    54  52  94 CALM      29.80F VSB 1/2
GILA BEND      PTSUNNY   56  56 100 CALM      29.80S
$$

AZZ503-504-507>509-311200-
SOUTHEAST ARIZONA

CITY           SKY/WX    TMP DP  RH WIND       PRES   REMARKS
TUCSON         CLOUDY    53  51  93 S5        29.83F
DAVIS-MONTHAN  LGT RAIN  52  52 100 SE8       29.81S FOG
NOGALES        LGT RAIN  48  46  93 S3        29.84F
SIERRA VISTA   LGT RAIN  46  45  93 CALM      29.85F
DOUGLAS        LGT RAIN  45  44  97 SW5       29.87F
SAFFORD        LGT RAIN  47  45  93 SE7       29.85F
$$

AZZ020-021-025-026-031-311200-
SOUTHWEST ARIZONA

CITY           SKY/WX    TMP DP  RH WIND       PRES   REMARKS
YUMA           CLOUDY    57  54  89 SW3       29.80F
$$

CAZ031-033-041-043-047-048-061-311200-
SOUTHERN CALIFORNIA

CITY           SKY/WX    TMP DP  RH WIND       PRES   REMARKS
DOWNTOWN L.A.  MOCLDY    59  55  87 E3        29.84F
L.A. AIRPORT   MOCLDY    56  55  97 CALM      29.84F
SAN DIEGO      MOCLDY    60  54  80 E3        29.87F
BURBANK        MOCLDY    54  51  90 CALM      29.84F
ONTARIO        CLOUDY    54  50  86 CALM      29.85F
RIVERSIDE      MOCLDY    53  51  93 CALM      29.86S
PALM SPRINGS   MOCLDY    58  51  78 SW5       29.84S
EL CENTRO NAS  CLEAR     52  48  86 W5        29.80F
IMPERIAL       PTCLDY    50  46  86 CALM      29.80F
BLYTHE         PTCLDY    53  52  96 NW7       29.81F
NEEDLES        CLOUDY    55  49  80 NW5       29.83S
$$

NVZ020-UTZ003-311200-
SOUTHERN NEVADA-UTAH

CITY           SKY/WX    TMP DP  RH WIND       PRES   REMARKS
LAS VEGAS      LGT RAIN  49  46  90 S6        29.83S
SALT LAKE CITY CLOUDY    39  34  82 W5        29.96S
$$

NMZ009-TXZ055-311200-
NEW MEXICO-WEST TEXAS

CITY           SKY/WX    TMP DP  RH WIND       PRES   REMARKS
ALBUQUERQUE    FLURRIES  33  32  96 N5        29.93F WCI  29
EL PASO        CLOUDY    44  40  85 N5        29.92F
$$


........................KEY........................
SKY/WX - SKY CONDITION/WEATHER
TMP    - TEMPERATURE IN FAHRENHEIT
DP     - DEW POINT IN FAHRENHEIT
RH     - RELATIVE HUMIDITY IN PERCENT
WIND   - DIRECTION AND SPEED IN MILES PER HOUR (MPH)
VRB    - VARIABLE WIND DIRECTION
PRES   - MEAN SEA LEVEL PRESSURE IN INCHES OF MERCURY
         F - FALLING PRESSURE   R - RISING PRESSURE
         S - STEADY PRESSURE
VSB    - VISIBILITY IN MILES
HX     - HEAT INDEX IN FAHRENHEIT
WCI    - WIND CHILL INDEX IN FAHRENHEIT
TC     - TEMPERATURE IN CELSIUS WHICH IS ALSO KNOWN AS
         TEMPERATURE IN CENTIGRADE
AFB    - AIR FORCE BASE
         LUKE AFB IS LUKE AIR FORCE BASE
         DAVIS-MONTHAN IS DAVIS-MONTHAN AIR FORCE BASE
NAS    - NAVAL AIR STATION
         EL CENTRO NAS IS EL CENTRO NAVAL AIR STATION
N/A    - NOT AVAILABLE



USA.gov is the U.S. government's official web portal to all federal, state and local government web resources and services.